Regional Weather Roundup
Issued by NWS

Home | Current Version | Previous Version | Graphics & Text | Print | Product List | Glossary Off
Versions: 1 2 3 4 5 6 7 8 9 10 11 12 13 14 15 16 17 18 19 20 21 22 23 24 25 26 27 28 29 30 31 32 33 34 35 36 37 38 39 40 41 42 43 44 45 46 47 48 49 50

000
ASUS43 KDTX 242110
RWRMI
MICHIGAN HOURLY REGIONAL WEATHER ROUNDUP
NATIONAL WEATHER SERVICE DETROIT/PONTIAC MI
500 PM EDT MON APR 24 2017

NOTE: "FAIR" INDICATES FEW OR NO CLOUDS BELOW 12,000 FEET WITH NO
SIGNIFICANT WEATHER AND/OR OBSTRUCTION TO VISIBILITY.

MIZ047>049-052>055-059>063-066>070-074>076-081>083-242200-
SOUTHEAST LOWER MICHIGAN

CITY           SKY/WX    TMP DP  RH WIND       PRES   REMARKS
ADRIAN         SUNNY     67  34  29 E18G26    29.94F
ALMA           CLOUDY    70  33  25 SE13      29.95F
ANN ARBOR      SUNNY     69  38  32 NE12G20   29.95F
BAD AXE        CLOUDY    63  39  41 SE7       30.01F
CARO           CLOUDY    68  41  37 E8G18     29.97F
DETROIT CITY   SUNNY     69  35  28 E15       29.97F
DETROIT        PTSUNNY   70  36  28 E12       29.97F
FLINT          MOSUNNY   70  34  26 E10       29.96F
GROSSE ILE     SUNNY     67  36  31 E13G18    29.95F
HILLSDALE      SUNNY     68  34  28 E14       29.92F
HOWELL         CLOUDY    69  24  18 SE12G18   29.95F

CITY           SKY/WX    TMP DP  RH WIND       PRES   REMARKS
JACKSON        SUNNY     70  34  26 SE13G20   29.93F
LAMBERTVILLE   SUNNY     60  37  42 E13G22    29.95F
LANSING        CLOUDY    72  28  19 SE12      29.94F
LAPEER         FAIR      70  35  27 SE8       29.98F
MASON          MOSUNNY   70  33  25 SE9G17    29.94F
MONROE         SUNNY     62  42  47 SE8       29.94F
MT. CLEMENS    PTSUNNY   68  36  30 E6        29.96F
PONTIAC        PTSUNNY   69  29  22 E14G20    29.95F
PORT HOPE        N/A     44  39  82 NE7       30.03F
PORT HURON     SUNNY     64  39  39 NE12      29.99F
TRI CITIES     MOSUNNY   57  47  69 NE16      29.99F
MIDLAND        FAIR      61  45  55 E13       29.98F
TROY           SUNNY     71  22  15 E12       29.99F
SAGINAW HB     PTSUNNY   59  45  58 N12       29.97F
$$
MIZ043>046-050>051-056>058-064>065-071>073-077>080-242200-
SOUTHWEST LOWER MICHIGAN

CITY           SKY/WX    TMP DP  RH WIND       PRES   REMARKS
BATTLE CREEK   SUNNY     71  28  20 SE9       29.92F
BENTON HARBOR  SUNNY     74  26  16 SE10G18   29.87F
BIG RAPIDS     CLOUDY    68  29  23 SE10G18   29.92F
COLDWATER      SUNNY     69  33  26 E10G18    29.91F
FREMONT        FAIR      70  28  20 SE13G18   29.90F
HOLLAND        CLOUDY    72  33  24 SE15      29.89F
GRAND RAPIDS   CLOUDY    71  35  26 E15G21    29.91F
IONIA          FAIR      70  34  26 E13       29.92F
KALAMAZOO      SUNNY     73  28  18 SE10      29.90F
LUDINGTON      CLOUDY    63  34  33 SW7       29.90F
MARSHALL       SUNNY     71  30  22 SE13G18   29.92F
MOUNT PLEASANT CLOUDY    68  38  32 E8        29.95F
MUSKEGON       CLOUDY    72  32  23 SE16      29.89F
SOUTH HAVEN    CLOUDY    73  19  13 SE13      29.89F
$$
MIZ016>042-242200-
NORTHERN LOWER MICHIGAN

CITY           SKY/WX    TMP DP  RH WIND       PRES   REMARKS
ALPENA         SUNNY     47  34  60 E15       30.07F
BEAVER ISLAND  CLOUDY    47  36  65 E12G20    29.97F
BELLAIRE       SUNNY     72  31  21 S12G18    29.91F
CADILLAC       CLOUDY    69  31  24 SE15      29.93F
CHARLEVOIX     SUNNY     60  39  45 E13       29.96F
FRANKFORT      MOSUNNY   59  29  31 SW3       29.91F
GAYLORD        MOSUNNY   68  38  33 E10G17    29.94F
GRAYLING       SUNNY     69  34  27 S12G18    29.96F
HARBOR SPRINGS CLOUDY    57  38  49 NE15      29.96F
HOUGHTON LAKE  SUNNY     67  35  30 S12G21    29.96F
MANISTEE       MOSUNNY   62  33  33 W10       29.90F
OSCODA         MOSUNNY   48  35  61 NE14      30.05F
PELLSTON       MOSUNNY   53  35  50 E17       29.99F
ROGERS CITY    SUNNY     48  33  55 SE15G22   30.07F
TRAVERSE CITY  PTSUNNY   62  40  44 NE7       29.90F
$$
MIZ007>008-015-242200-
EASTERN UPPER MICHIGAN

CITY           SKY/WX    TMP DP  RH WIND       PRES   REMARKS
KINROSS        SUNNY     49  30  48 E14       30.03F
MACKINAC ISLAN MOSUNNY   40  31  71 E17G28    30.02F WCI  31
NEWBERRY       CLOUDY    53  35  50 E13       29.96F
S. S. MARIE    CLOUDY    50  30  46 E12G22    30.03F
MUNISING         N/A     59  34  39 S13G20    29.90F
$$
MIZ004>006-011>014-085-242200-
CENTRAL UPPER MICHIGAN

CITY           SKY/WX    TMP DP  RH WIND       PRES   REMARKS
MANISTIQUE     CLOUDY    48  36  63 E16       29.95F
MENOMINEE      MOSUNNY   49  39  68 E12       29.91F
SAWYER-GWINN   SUNNY     57  36  44 S15       29.88F
$$
MIZ001>003-009>011-084-242200-
WESTERN UPPER MICHIGAN

CITY           SKY/WX    TMP DP  RH WIND       PRES   REMARKS
IRON MOUNTAIN  MOSUNNY   61  36  39 SE12      29.83F
HOUGHTON       CLOUDY    43  32  65 E20G29    29.85F
COPPER HARBOR    N/A     43  32  65 SE12G22   29.90F
IRONWOOD       CLOUDY    65  32  29 S8G18     29.72F
$$

ABBREVIATIONS USED IN REMARKS
   TC - TEMPERATURE IN CELSIUS
  WCI - WIND CHILL INDEX
   HX - HEAT INDEX
  VSB - VISIBILITY





USA.gov is the U.S. government's official web portal to all federal, state and local government web resources and services.